Content
SEND FEEDBACK

Daily
Averages
Monthly
Summary
United Kingdom

LONDON, ENGLAND


Home > Europe > United Kingdom > England
Elevation: 203 feet     Latitude: 51 09N     Longitude: 000 11W

WEATHER
 
SELECT A DAY
Number of Records: 294,675;   Date Range: 7/1/96 - 9/21/14
 
SHARE

PRINT THIS DATA

[ ← Previous Day ]
WEATHER ALMANAC - JANUARY 14, 2013
[ Next Day → ]
[ °C ]   °F
Weather ElementAverageHighLow
Temperature34.2 °F37.4 °F (1:20 pm)30.2 °F (3:20 am)
Dewpoint30.9 °F35.6 °F (1:50 pm)26.6 °F (12:50 am)
Humidity87.7 %93 % (6:20 am)80 % (12:50 am)
Barometer29.84 in30.09 in (12:50 am)29.62 in (9:20 pm)
Wind Speed6.8 mph16.1 mph (7:20 pm)
Weather ElementAverage
Visibility5.2 mi
Wind DirectionSSW (217 °)

Weather ElementTotal
Precipitation---
Heating Degree Days31.2 (Base 65)
Averaged from 47 records on January 14, 2013
WEATHER CONDITIONS BREAKOUT
WIND DIRECTION BREAKOUT
WEATHER BY HOUR - JANUARY 14, 2013
[ °C ]   °F
Local TimeTemperatureDewpointHumidityBarometerVisibilityWind DirectionWind SpeedGust SpeedPrecipitationEventsConditions
12:50 AM32.0 °F26.6 °F80 %30.09 inNW (320°)4.6 mphClear
1:20 AM32.0 °F26.6 °F80 %30.06 inNW (310°)2.3 mphClear
1:50 AM32.0 °F26.6 °F80 %30.06 inCalmClear
2:20 AM32.0 °F26.6 °F80 %30.06 inVariable2.3 mphClear
2:50 AM32.0 °F26.6 °F80 %30.06 inVariable2.3 mphClear
3:20 AM30.2 °F26.6 °F86 %30.06 inWSW (250°)2.3 mphClear
3:50 AM32.0 °F28.4 °F87 %30.06 inSW (230°)2.3 mphClear
4:20 AM32.0 °F28.4 °F87 %30.04 in6.2 miSSW (210°)2.3 mphSnowLight Snow
4:50 AM32.0 °F26.6 °F80 %30.04 in4.3 miWest (260°)5.8 mphSnowLight Snow
5:20 AM30.2 °F26.6 °F86 %30.04 in3.7 miWest (260°)5.8 mphSnowLight Snow
5:50 AM30.2 °F26.6 °F86 %30.01 in3.7 miSSW (210°)2.3 mphSnowLight Snow
6:20 AM30.2 °F28.4 °F93 %30.01 in5.0 miSouth (190°)2.3 mphSnowLight Snow
6:50 AM30.2 °F28.4 °F93 %30.01 in4.3 miSW (220°)3.5 mphSnowLight Snow
7:20 AM30.2 °F28.4 °F93 %29.98 in4.3 miSSW (200°)3.5 mphSnowLight Snow
7:50 AM32.0 °F28.4 °F87 %29.98 in5.0 miVariable3.5 mphMostly Cloudy
8:20 AM32.0 °F28.4 °F87 %29.98 in5.6 miVariable3.5 mphOvercast
8:50 AM32.0 °F28.4 °F87 %29.98 in5.6 miSSE (160°)4.6 mphSnowLight Snow
9:20 AM32.0 °F28.4 °F87 %29.95 in6.2 miSouth (170°)3.5 mphMostly Cloudy
9:50 AM32.0 °F28.4 °F87 %29.95 in6.2 miSouth (180°)5.8 mphMostly Cloudy
10:20 AM32.0 °F28.4 °F87 %29.95 in6.2 miSouth (190°)5.8 mphMostly Cloudy
10:50 AM33.8 °F30.2 °F87 %29.92 in6.2 miSouth (190°)6.9 mphMostly Cloudy
11:20 AM33.8 °F30.2 °F87 %29.89 in5.0 miSSW (210°)4.6 mphSnowLight Snow
11:50 AM35.6 °F32.0 °F87 %29.86 in4.3 miSouth (180°)6.9 mphRainRain
12:20 PM35.6 °F33.8 °F93 %29.83 in3.7 miSouth (190°)6.9 mphRainLight Rain
12:50 PM35.6 °F33.8 °F93 %29.83 in3.1 miSouth (180°)4.6 mphRain-SnowLight Rain
1:20 PM37.4 °F33.8 °F87 %29.80 in3.1 miSouth (170°)4.6 mphRainLight Rain
1:50 PM37.4 °F35.6 °F93 %29.77 in3.1 miSouth (180°)4.6 mphRainLight Rain
2:20 PM37.4 °F35.6 °F93 %29.77 in3.1 miSSW (210°)5.8 mphRainLight Rain
2:50 PM37.4 °F35.6 °F93 %29.74 in4.3 miWSW (240°)4.6 mphRainLight Rain
3:20 PM37.4 °F35.6 °F93 %29.74 in4.3 miWSW (240°)8.1 mphRainLight Rain
3:50 PM37.4 °F35.6 °F93 %29.71 in5.0 miWSW (250°)8.1 mphRainLight Rain
4:20 PM37.4 °F33.8 °F87 %29.71 in6.2 miWest (280°)6.9 mphScattered Clouds
4:50 PM35.6 °F33.8 °F93 %29.68 inWest (260°)5.8 mphClear
5:20 PM35.6 °F33.8 °F93 %29.68 inWest (270°)5.8 mphClear
5:50 PM35.6 °F32.0 °F87 %29.68 in6.2 miWest (270°)6.9 mphPartly Cloudy
6:20 PM37.4 °F33.8 °F87 %29.68 in6.2 miWest (280°)9.2 mphScattered Clouds
6:50 PM37.4 °F33.8 °F87 %29.65 in6.2 miWNW (290°)13.8 mphMostly Cloudy
7:20 PM37.4 °F33.8 °F87 %29.65 in6.2 miWNW (300°)16.1 mphRainLight Rain
7:50 PM37.4 °F33.8 °F87 %29.65 in5.6 miWNW (300°)12.7 mphRainLight Rain
8:20 PM35.6 °F33.8 °F93 %29.65 in6.2 miWest (270°)10.4 mphMostly Cloudy
8:50 PM37.4 °F33.8 °F87 %29.65 in6.2 miWNW (290°)15.0 mphMostly Cloudy
9:20 PM37.4 °F33.8 °F87 %29.62 in6.2 miWNW (290°)15.0 mphMostly Cloudy
9:50 PM35.6 °F32.0 °F87 %29.62 in6.2 miNW (310°)13.8 mphMostly Cloudy
10:20 PM35.6 °F32.0 °F87 %29.62 in6.2 miWNW (300°)13.8 mphMostly Cloudy
10:50 PM35.6 °F32.0 °F87 %29.62 in6.2 miWNW (300°)13.8 mphScattered Clouds
11:20 PM33.8 °F30.2 °F87 %29.62 in6.2 miWNW (300°)11.5 mphPartly Cloudy
11:50 PM35.6 °F32.0 °F87 %29.62 in6.2 miWNW (290°)13.8 mphMostly Cloudy
Hourly data recorded from EGKK, located miles away from London, England







STORIES FROM OUR PARTNERS